Location: Hylvaty SDH
(49.9612°N, 16.4057°E)
Time: 21:11:49
(UTC+01:00)

Vanguard 1 Rocket - Pass Details

Date: 06 October 2020
Orbit: 656 x 4221 km, 34.3° (Epoch: 30 October)

Event Time Altitude Azimuth Distance (km) Brightness Sun altitude
Rises 20:48:40 0° 265° (W) 5,424 12.4 -24.1°
Reaches altitude 10° 20:51:55 10° 257° (WSW) 4,825 11.8 -24.6°
Maximum altitude 21:05:20 40° 195° (SSW) 4,240 10.6 -26.6°
Enters shadow 21:16:58 25° 151° (SSE) 5,771 10.9 -28.3°
Drops below altitude 10° 21:26:20 10° 137° (SE) 7,353 - -29.6°
Sets 21:32:59 0° 131° (SE) 8,459 - -30.5°
